GFSNGP_con_3kmhel_159.txt.gz
Helicity
16 -79 84 179 152 92 111 139 139 135 114 78 38 113 128 101 132 133 58 -3 -65 -5 70 181 270 274 280 263 252 222 226 220 191 167 152 145 139 122 114 88 78 72 70 59
-15 -24 -1 -14 56 94 145 137 59 55 51 49 94 59 57 102 99 60 71 36 8 3 113 205 281 334 346 274 228 225 239 230 193 178 167 152 153 150 121 109 97 84 81 75
-6 -54 -9 9 32 46 69 94 80 88 89 101 76 53 40 147 114 103 94 125 110 108 160 251 292 370 318 291 253 228 257 222 198 182 180 182 182 168 132 110 92 88 83 80
73 53 18 94 94 38 38 38 34 36 58 106 99 65 77 125 123 93 98 129 159 219 239 257 281 271 334 319 262 264 242 213 194 203 217 213 204 173 135 108 105 91 87 77
20 59 196 160 91 71 93 57 40 58 37 71 120 114 54 62 85 82 170 168 220 231 241 206 251 284 311 283 289 257 211 187 190 217 226 206 191 162 136 121 112 103 94 84
9 94 84 50 86 80 87 37 -14 6 14 53 146 123 91 102 132 142 149 188 211 222 194 226 216 202 289 285 251 194 189 195 203 198 190 181 163 141 121 110 117 102 100 90
25 68 110 62 104 76 92 112 22 25 56 114 117 84 102 134 169 189 173 186 202 197 163 159 194 228 289 280 201 219 228 216 191 170 168 159 150 133 118 117 125 108 104 96
106 126 87 61 120 160 190 129 90 66 42 61 116 109 123 127 146 147 180 169 143 161 157 167 194 236 255 202 231 261 249 221 199 181 164 152 138 125 117 121 119 104 99 88
143 161 183 198 110 123 124 80 103 98 53 65 93 88 101 127 128 119 115 123 126 172 204 183 180 194 226 207 250 245 227 205 188 167 145 133 134 134 127 110 118 111 96 100
108 56 45 28 74 30 70 73 49 84 76 81 106 95 115 116 119 122 110 108 125 165 178 167 159 166 176 226 223 222 201 188 176 168 152 138 124 118 112 108 108 109 107 123
113 65 12 73 74 106 92 89 78 90 80 48 68 66 88 80 70 85 106 120 120 124 130 140 175 191 188 213 207 193 185 179 168 156 148 145 123 111 97 91 93 105 99 116
110 40 58 17 106 109 108 44 32 55 59 60 73 58 57 56 74 97 113 126 115 117 148 170 174 181 188 180 181 205 209 192 172 163 159 155 148 143 126 107 107 104 107 120
73 89 44 21 -7 9 1 9 43 49 57 56 43 52 75 105 100 109 113 117 113 112 146 175 182 197 190 190 184 180 200 188 169 166 178 180 170 165 197 179 153 137 129 128
-29 -104 -113 -64 -45 -1 21 48 56 69 89 87 100 118 140 149 153 127 111 100 122 143 152 164 180 189 196 204 193 190 182 189 174 177 191 193 184 181 188 191 195 183 147 144
24 4 4 7 24 55 48 46 62 70 84 94 92 90 105 121 111 116 140 139 141 138 150 160 171 174 193 201 199 202 206 188 185 193 205 212 212 198 184 184 177 184 188 188
32 36 54 70 87 99 98 111 109 94 98 115 107 104 102 112 135 154 159 161 160 120 131 156 159 175 190 184 182 200 213 216 211 213 234 239 225 203 192 196 205 193 176 164
37 47 74 71 38 57 84 103 129 158 131 106 104 127 132 147 173 171 146 122 127 141 134 138 165 192 200 204 208 203 210 201 207 227 213 224 218 201 202 208 205 191 181 169
31 30 6 14 56 54 49 88 87 89 125 141 145 144 156 128 114 130 148 155 161 155 126 143 166 190 197 199 184 181 176 184 193 195 203 213 202 196 190 189 181 189 185 166
38 14 28 28 17 16 34 41 44 82 112 136 154 143 139 123 132 148 148 143 137 142 120 154 162 183 168 153 154 149 151 168 174 183 188 201 206 182 171 160 161 153 156 161
43 64 81 73 85 89 81 58 111 118 81 138 176 197 187 150 143 125 121 136 139 156 192 176 170 152 129 119 134 129 139 143 148 161 177 170 162 157 145 139 140 137 136 137
69 64 78 118 165 181 152 102 145 241 177 152 187 214 207 195 167 118 143 158 165 190 202 209 178 157 130 131 130 127 119 118 128 141 142 141 145 142 133 132 135 132 128 123
47 64 103 133 154 146 134 133 135 159 168 139 177 158 187 181 173 182 181 150 155 170 175 179 168 152 158 175 144 128 118 119 124 125 124 121 130 134 132 134 136 135 125 116
41 70 101 112 131 141 147 150 137 123 120 97 137 144 150 151 146 143 164 139 133 140 155 149 156 196 208 166 153 144 136 129 116 109 116 119 116 118 120 123 126 125 120 118
57 73 93 98 91 105 145 123 125 123 127 140 144 131 115 135 172 160 148 139 141 136 142 141 156 176 172 155 156 148 132 127 121 118 119 122 120 124 124 125 123 119 121 127
78 80 75 83 93 95 91 91 121 122 127 128 119 117 117 106 74 84 99 109 116 122 127 125 137 155 137 146 149 134 127 124 126 126 121 119 118 114 114 114 109 109 113 112
75 69 67 64 62 64 62 56 72 73 75 83 88 77 73 72 84 81 78 84 89 101 107 101 105 116 125 128 129 131 132 131 122 115 120 122 120 113 108 105 101 99 101 109
74 72 71 68 55 50 47 47 52 47 45 44 56 48 49 59 67 70 74 77 81 88 94 100 103 109 115 123 130 134 134 131 125 127 121 118 112 108 107 104 107 114 125 135

GFSNGP_con_3kmhel_162.txt.gz
Helicity
132 98 74 36 60 113 136 72 63 84 67 47 53 19 -21 10 30 77 93 71 65 54 40 0 -8 83 244 278 276 279 242 210 184 175 200 172 161 151 153 131 102 85 77 73
138 114 51 32 23 -103 -60 32 42 51 67 36 42 33 -8 13 37 64 101 73 37 -14 -53 -59 6 104 217 250 320 304 247 198 198 209 205 192 179 176 162 147 134 115 106 102
161 203 120 111 2 -73 -17 -15 -9 29 22 40 27 4 -17 -10 38 29 161 90 73 53 32 94 119 143 237 316 327 255 233 221 209 216 218 205 190 203 176 155 136 114 113 104
148 214 222 193 112 -6 2 -3 -53 -46 -26 19 -2 -31 0 16 45 31 42 80 83 65 84 88 159 248 254 278 267 260 263 252 224 244 223 213 208 190 170 152 129 118 115 96
25 110 160 102 42 69 66 97 -15 -34 -27 2 10 15 -27 26 11 59 80 58 79 141 156 207 264 261 254 263 261 270 270 230 237 236 227 212 206 187 173 158 141 127 111 100
83 53 97 98 151 82 43 98 16 -12 -15 29 17 23 -8 22 40 34 73 106 185 265 263 223 202 246 294 310 286 241 215 221 215 207 199 207 194 186 174 154 133 110 115 110
81 107 68 32 61 91 62 66 20 49 30 50 45 39 75 86 104 79 104 192 207 256 240 292 277 281 280 276 243 251 254 230 205 185 189 189 185 177 162 136 134 126 116 107
70 77 66 50 54 46 54 26 47 27 27 48 29 89 88 79 105 144 179 168 211 279 269 248 251 243 238 238 263 306 288 260 226 207 201 186 191 171 142 141 134 113 108 106
87 80 99 122 90 76 57 46 27 47 35 31 23 66 79 87 91 122 146 163 151 192 190 169 166 166 207 228 283 297 282 246 232 224 197 203 180 160 150 138 129 115 109 115
37 12 -12 -6 27 35 32 26 16 42 22 27 35 58 91 96 100 116 113 109 105 124 119 114 122 138 188 239 268 281 259 221 202 186 184 181 157 143 139 130 122 123 122 119
55 45 40 25 27 42 19 72 41 52 51 33 51 62 96 109 133 117 116 104 79 81 97 114 135 177 190 232 250 219 212 197 171 159 158 161 142 131 123 115 112 118 117 117
53 33 40 80 26 53 75 156 184 106 88 55 35 36 80 96 115 98 83 69 78 100 121 134 150 168 173 165 181 201 198 175 160 164 161 154 147 151 156 141 139 164 159 128
32 83 65 65 23 43 17 95 92 22 41 37 30 70 90 133 152 72 65 69 82 100 125 138 150 167 174 171 173 166 165 162 167 170 156 138 145 145 168 181 165 153 147 146
8 0 -7 26 43 30 -6 -5 -3 48 40 39 53 107 97 87 107 106 103 103 112 118 123 125 144 168 179 175 167 163 170 181 166 162 145 147 150 148 172 190 204 204 164 144
16 11 19 16 24 30 40 30 34 45 48 47 58 74 67 74 77 104 130 141 133 118 116 140 168 178 174 181 188 191 202 183 171 168 175 176 179 178 180 176 185 190 179 167
34 23 -2 2 24 40 49 70 90 90 63 72 83 91 108 122 89 118 140 132 130 124 143 178 176 174 188 187 196 210 221 222 196 198 216 210 195 179 190 194 198 188 171 175
37 30 42 38 36 44 55 45 52 55 82 78 82 105 112 131 128 126 125 146 191 196 172 181 191 190 204 228 214 185 205 205 204 219 214 189 176 171 186 193 195 194 179 180
-6 23 35 30 50 78 79 61 54 56 74 100 158 202 194 162 152 176 209 204 238 192 152 153 162 189 201 199 185 183 189 189 196 205 186 184 166 166 183 190 188 190 188 200
48 49 30 14 14 25 39 40 36 48 80 120 143 151 157 172 177 204 186 189 177 157 120 138 154 161 160 157 174 176 174 151 161 178 177 179 172 177 182 172 171 169 171 168
72 60 48 43 59 82 44 46 71 94 102 137 155 158 173 169 177 191 203 189 170 133 143 148 144 143 140 139 143 138 133 136 145 161 155 155 152 161 157 148 155 151 142 123
65 45 38 72 106 110 106 91 96 147 195 202 133 178 185 181 217 229 233 205 146 136 179 161 143 137 133 135 104 127 126 121 126 129 129 128 136 135 134 130 126 119 115 110
50 57 40 66 117 126 130 125 118 108 138 214 244 222 223 254 250 213 192 120 141 160 193 184 156 142 146 121 127 118 113 102 101 105 112 114 113 121 123 121 116 119 122 129
57 71 64 88 115 115 142 151 148 130 125 115 117 108 97 128 131 120 135 141 156 154 163 159 171 171 155 151 132 120 108 101 94 90 96 102 105 114 119 120 119 122 122 124
43 52 63 71 89 102 125 126 129 134 121 120 130 116 97 121 165 159 160 159 153 134 136 144 148 150 153 139 129 122 112 101 97 99 104 113 114 116 111 117 111 111 119 124
30 45 51 63 71 86 95 105 117 112 123 131 134 135 140 130 103 122 137 134 125 120 134 131 131 135 128 129 130 124 111 105 106 103 100 106 109 110 113 107 105 105 108 104
32 41 56 68 74 72 71 68 73 67 65 79 85 86 93 94 96 98 101 104 105 112 116 112 115 117 121 126 127 119 109 118 114 108 106 105 107 105 103 101 105 101 99 102
49 56 73 83 71 62 59 62 61 60 48 45 63 63 63 68 69 71 80 85 95 104 112 113 111 109 113 113 113 113 114 116 113 108 108 110 103 106 104 99 100 105 112 120

GFSNGP_con_3kmhel_168.txt.gz
Helicity
81 87 64 61 57 40 64 60 96 128 99 127 146 67 39 23 21 51 74 107 108 139 259 416 525 615 646 617 508 407 351 258 221 210 290 241 205 161 140 161 163 130 113 122
-125 45 94 213 188 113 31 -44 52 7 32 32 21 -1 0 -5 -7 43 59 88 112 212 316 418 582 774 794 572 460 329 303 282 270 265 277 275 200 198 217 219 235 173 231 269
-36 42 116 99 99 48 138 71 75 60 44 4 42 44 37 19 18 -4 74 140 122 209 317 387 452 612 596 484 445 327 340 241 302 336 309 257 235 287 278 239 228 305 284 250
85 -9 -22 -26 -9 67 94 148 202 86 84 66 81 85 51 55 29 17 54 123 168 245 310 345 331 351 397 318 298 260 249 244 310 317 305 330 348 318 288 231 223 244 211 178
138 -10 43 45 -13 45 69 90 75 80 85 180 120 53 44 24 74 39 37 121 197 229 226 231 243 195 98 92 170 195 188 245 261 242 316 342 333 303 245 224 202 199 173 165
240 166 75 -5 -21 1 88 80 -15 63 81 43 67 131 120 85 123 52 158 161 207 198 165 201 283 190 121 136 152 175 221 263 302 269 309 318 310 272 240 225 246 227 193 167
119 109 107 27 13 52 102 38 162 148 151 84 72 99 98 41 33 63 102 164 165 225 250 284 301 183 178 187 185 295 337 328 206 214 299 303 270 245 233 227 232 217 189 157
105 64 52 51 35 39 59 66 43 31 19 87 127 85 52 51 30 79 107 150 333 397 386 406 404 344 334 355 248 281 308 319 286 272 295 271 239 224 202 212 202 188 167 144
46 62 105 172 49 -6 7 16 52 59 148 209 192 42 -10 31 40 79 123 157 279 449 458 459 498 418 392 391 396 339 299 270 275 266 235 238 235 224 212 215 184 145 133 120
-48 2 29 57 26 27 65 50 58 72 5 30 61 33 -35 -9 39 85 78 130 211 342 434 429 403 348 321 255 303 380 387 297 274 288 259 240 241 221 210 206 169 143 144 137
25 32 42 9 36 94 118 71 38 48 38 32 39 90 55 32 80 102 92 134 152 211 284 336 342 329 306 282 298 368 351 306 276 271 257 250 222 208 189 177 158 165 173 159
11 65 11 30 44 64 27 51 43 42 74 180 195 87 68 70 93 115 164 97 117 158 173 207 213 187 159 199 269 332 299 262 256 247 222 214 209 241 244 238 233 240 235 212
4 -21 18 31 231 36 49 35 50 34 19 121 283 167 96 131 119 162 99 71 106 108 98 98 84 95 102 151 211 233 259 230 222 205 202 200 207 234 289 270 243 232 240 228
21 15 56 99 15 40 25 26 52 53 15 31 211 391 216 194 124 151 100 161 155 58 56 53 57 63 91 137 157 174 184 189 196 185 193 182 202 225 221 243 229 232 223 225
87 106 178 16 9 -14 -14 -10 -7 56 18 -32 10 8 87 122 279 259 285 253 185 109 69 72 74 85 106 118 148 153 163 180 165 178 165 168 222 198 183 183 177 196 238 241
24 51 31 16 3 10 9 -6 -16 28 73 79 71 52 29 62 89 105 91 62 84 96 57 80 106 118 131 145 172 169 197 200 181 215 198 217 231 183 189 174 149 208 197 218
98 60 63 58 42 25 -4 -15 26 115 168 232 139 100 86 131 162 140 94 106 134 116 127 166 183 164 162 157 196 245 262 254 237 254 244 249 250 241 224 182 183 206 155 139
70 43 34 26 15 5 13 121 171 129 97 92 117 132 157 159 208 255 265 253 299 346 274 278 266 251 232 237 243 275 274 291 290 260 237 232 206 215 221 200 186 179 152 186
43 39 41 53 52 75 87 83 49 36 28 31 73 113 155 216 247 249 219 223 249 251 211 274 277 267 264 292 276 251 218 223 244 218 208 196 193 195 188 166 145 136 220 231
42 36 43 41 47 66 74 68 56 49 50 54 57 88 111 140 167 175 185 202 165 156 190 214 240 244 240 265 223 183 174 153 169 179 176 157 152 161 149 151 152 180 244 219
18 30 25 15 39 64 84 83 67 88 100 96 90 100 115 133 143 146 157 188 183 183 183 189 196 182 180 214 210 173 157 142 166 170 162 145 145 160 189 191 170 176 205 197
18 21 31 32 57 77 80 74 59 65 84 89 90 90 112 155 179 168 145 146 181 245 246 215 182 168 143 184 160 162 155 124 124 137 126 131 138 141 154 150 141 148 166 173
31 41 68 76 70 66 74 77 82 79 90 84 89 90 108 147 128 134 160 161 182 123 106 106 105 108 153 163 151 130 116 120 131 121 107 101 108 118 123 122 114 124 128 141
71 78 80 55 37 67 89 83 77 77 80 94 105 73 63 69 95 95 78 74 92 100 122 128 169 213 169 153 142 126 105 101 99 96 96 100 101 88 83 98 107 125 142 166
63 69 75 55 64 53 62 58 76 79 94 118 118 120 113 101 83 104 125 145 151 138 156 178 178 176 145 140 131 119 104 97 99 105 99 85 83 95 130 159 163 158 159 163
54 66 70 74 55 45 56 76 84 75 75 76 86 87 87 89 92 101 116 118 114 109 111 104 114 117 110 102 103 107 112 120 113 108 106 122 150 166 174 173 168 164 159 154
53 40 45 32 19 50 71 88 90 80 76 70 76 62 63 66 77 80 73 71 79 94 105 114 112 118 128 134 144 150 136 117 114 114 131 143 150 164 162 166 166 161 157 160

GFSNGP_con_3kmhel_174.txt.gz
Helicity
52 137 128 33 48 40 -91 -80 -42 -13 -92 71 -26 -15 -19 3 26 30 99 143 169 210 238 301 370 455 548 570 587 626 635 593 561 515 448 392 343 259 197 159 178 151 171 162
-93 40 183 111 85 19 -64 -72 -133 -214 -117 -111 -94 -45 -37 -16 18 25 71 84 148 226 225 250 333 398 467 532 585 638 632 583 539 520 462 400 360 184 206 161 121 138 115 148
-91 -28 -51 59 63 60 29 -46 -7 -29 -57 28 -29 -49 -20 -57 32 80 145 117 206 204 243 292 360 461 522 594 630 578 609 578 510 461 488 396 264 212 104 132 131 151 163 164
-11 -5 -83 -10 -7 -7 -26 -55 -36 -29 -95 21 27 20 -19 27 79 99 108 141 212 250 284 347 407 468 580 622 602 605 576 552 557 436 499 349 270 194 273 228 173 152 168 155
80 45 58 47 40 32 -52 -10 214 151 1 92 31 33 152 178 313 66 31 61 144 244 357 434 456 537 604 578 569 564 533 506 442 466 535 269 207 209 149 182 179 175 153 156
149 107 78 103 174 156 40 47 235 194 161 252 104 50 63 108 325 215 166 88 142 271 371 403 452 569 579 542 554 528 524 464 392 459 428 305 232 188 181 204 195 187 158 148
102 179 158 109 31 68 87 60 135 72 -27 51 216 68 119 162 114 136 59 72 147 251 287 351 471 465 450 470 473 536 522 468 388 430 434 404 244 212 223 212 203 191 184 172
22 56 43 36 32 -19 23 12 0 96 64 -20 46 70 26 3 -31 4 62 76 149 187 236 312 350 350 378 352 389 477 587 465 405 420 333 245 249 228 224 248 210 183 197 183
35 32 45 40 -37 -86 -86 -58 -63 -14 166 36 16 69 -4 19 18 25 27 58 110 201 265 294 306 306 342 353 409 404 435 375 361 306 263 256 236 243 248 207 203 203 188 185
-15 19 39 133 -4 -28 -14 -2 -37 87 61 23 30 -5 3 17 48 91 74 94 100 172 203 266 267 271 297 344 355 385 391 333 350 304 271 228 225 258 264 274 220 202 186 158
-28 6 -33 -5 1 11 22 55 0 -31 10 -12 61 -12 -23 23 76 115 75 86 67 103 181 234 285 312 273 299 336 368 401 436 446 360 420 382 327 289 263 178 203 215 164 165
-7 -51 -97 55 25 30 28 28 0 -44 72 10 -8 5 40 94 117 98 29 28 62 137 219 255 260 255 239 245 271 305 308 325 290 277 262 244 231 174 109 137 138 108 125 151
4 -36 -32 40 12 40 2 19 89 56 11 2 -24 -52 5 -3 39 90 49 35 44 106 141 191 217 212 185 174 179 214 229 199 183 164 179 194 183 170 168 102 116 110 102 95
40 -19 0 19 6 52 49 182 224 85 -2 7 9 3 -19 -11 4 28 20 31 52 101 142 180 197 187 181 206 235 204 177 182 203 189 164 164 152 170 190 214 205 192 119 129
61 29 19 16 40 72 118 71 74 -13 18 26 35 35 33 18 -12 -45 -58 -36 72 152 177 170 200 242 233 206 175 147 149 158 173 186 177 175 192 226 241 239 239 225 229 191
36 21 10 39 26 47 27 43 25 47 44 24 41 44 42 39 39 13 -32 -43 -41 0 140 285 264 164 126 137 132 134 130 154 172 171 185 190 197 215 229 235 239 217 216 230
44 60 46 34 31 35 35 38 47 38 19 16 20 17 67 79 74 67 28 -10 -9 7 17 45 58 92 110 130 166 131 123 120 155 159 162 172 175 181 197 205 208 197 194 209
42 96 52 73 23 -7 6 38 35 24 6 6 23 38 66 93 92 93 77 63 69 72 43 21 28 51 94 114 139 145 129 126 126 134 156 163 162 164 161 163 166 163 172 156
83 67 40 22 9 7 20 34 28 12 10 23 48 65 67 71 87 81 72 82 78 69 58 62 76 88 90 104 116 123 126 129 125 135 152 155 159 154 154 144 150 159 170 161
30 16 23 30 36 17 26 25 13 28 32 31 51 81 76 102 108 90 95 89 68 42 73 83 90 88 82 116 127 127 130 148 175 167 150 137 139 152 169 166 152 169 170 166
18 18 16 12 12 20 9 5 6 9 7 28 53 86 98 95 128 122 107 101 95 90 109 135 121 111 128 163 159 141 157 189 193 169 175 177 179 171 171 175 165 162 166 160
7 8 11 16 19 19 30 31 24 20 49 72 84 88 91 82 127 142 121 98 102 129 165 185 178 166 174 194 163 144 162 156 153 162 167 163 156 152 155 161 167 171 159 157
21 23 27 33 35 32 57 64 65 66 84 102 106 94 86 65 70 88 93 84 92 114 143 145 171 188 153 120 114 112 119 121 114 114 122 128 133 143 140 147 161 161 155 147
25 32 35 42 58 79 88 85 89 86 89 98 94 78 68 73 78 56 66 80 94 97 112 117 115 124 122 112 112 111 107 103 101 104 104 104 104 110 117 126 142 136 131 139
43 39 45 66 70 56 61 69 78 79 84 88 91 74 74 75 53 48 71 67 77 79 87 113 133 147 133 123 113 106 99 97 92 89 89 87 89 91 94 98 104 111 118 118
15 30 42 61 55 54 54 65 66 51 49 51 67 72 75 99 88 89 92 101 112 111 110 112 118 128 125 115 106 102 99 98 96 92 90 88 89 89 95 106 115 122 131 140
52 55 59 56 56 58 59 60 70 65 41 52 69 60 65 79 77 76 78 84 96 93 85 90 99 109 115 117 116 116 112 108 106 105 107 112 116 119 127 135 140 139 135 129